This is the latest recevied weather packets stored in our database for station/object KA6AKH-13. If no packets are shown the sender has not sent any weather packets the latest 10 day(s).
| Time | Temp. | Humidity | Pressure | Rain* | Wind** | Luminosity | Snow |
|---|---|---|---|---|---|---|---|
| 1788040771 | 27.78° C | 53% | 1021.8 hPa | 0 mm | - | - | - |
| 1788040171 | 27.78° C | 54% | 1021.9 hPa | 0 mm | - | - | - |
| 1788038942 | 28.33° C | 50% | 1021.9 hPa | 0 mm | - | - | - |
| 1788037742 | 28.89° C | 49% | 1021.8 hPa | 0 mm | - | - | - |
| 1788037142 | 29.44° C | 47% | 1021.9 hPa | 0 mm | - | - | - |
| 1788034027 | 30.56° C | 43% | 1022.8 hPa | 0 mm | - | - | - |
| 1788033512 | 31.11° C | 42% | 1022.7 hPa | 0 mm | - | - | - |
| 1788032912 | 30.56° C | 43% | 1022.8 hPa | 0 mm | - | - | - |
| 1788032312 | 30.56° C | 43% | 1022.9 hPa | 0 mm | - | - | - |
| 1788029282 | 30° C | 42% | 1023.2 hPa | 0 mm | - | - | - |
| 1788028682 | 29.44° C | 43% | 1023.3 hPa | 0 mm | - | - | - |
| 1788028082 | 29.44° C | 41% | 1023.4 hPa | 0 mm | - | - | - |
| 1788027482 | 30° C | 42% | 1023.5 hPa | 0 mm | - | - | - |
| 1788026281 | 28.33° C | 46% | 1023.6 hPa | 0 mm | - | - | - |
| 1788025681 | 28.33° C | 45% | 1023.8 hPa | 0 mm | - | - | - |
| 1788023881 | 28.33° C | 46% | 1024.1 hPa | 0 mm | - | - | - |
| 1788023281 | 27.78° C | 46% | 1024.1 hPa | 0 mm | - | - | - |
| 1788022681 | 27.22° C | 48% | 1024.3 hPa | 0 mm | - | - | - |
| 1788020281 | 26.11° C | 46% | 1024.3 hPa | 0 mm | - | - | - |
| 1788019680 | 26.11° C | 47% | 1024.4 hPa | 0 mm | - | - | - |
| 1788018481 | 25.56° C | 48% | 1024.5 hPa | 0 mm | - | - | - |
| 1788016681 | 25° C | 54% | 1024.2 hPa | 0 mm | - | - | - |
| 1788014281 | 24.44° C | 56% | 1023.9 hPa | 0 mm | - | - | - |
| 1788013681 | 23.89° C | 57% | 1023.9 hPa | 0 mm | - | - | - |
| 1788013081 | 23.89° C | 57% | 1024 hPa | 0 mm | - | - | - |
* Rain latest hour (hover to see other rain measurements)
** Current wind speed in m/s (hover to see current wind gust speed)